CAPE
28 36 27 22 25 25 17 25 29 18 12 1 0 0 0 1 8 1 0 0 0 0 0 0 0 0 0 0 0 0 0 0 0 0 0 0 0 0 0 5 10 0 53 169 68 180 430
18 28 31 48 27 25 16 29 28 24 21 13 9 0 3 0 0 0 0 0 0 0 0 0 0 0 0 0 0 0 0 0 0 0 0 0 0 0 0 7 31 215 215 169 214 373 482
16 28 18 22 40 42 28 24 27 24 20 24 15 8 0 6 0 0 0 0 0 0 0 0 0 0 0 0 0 0 0 0 0 0 0 0 0 0 0 15 110 199 354 441 571 611 314
9 16 15 35 41 44 35 30 22 26 23 19 23 22 0 0 0 0 0 0 0 0 0 0 0 0 0 0 0 0 0 0 0 0 0 0 0 0 0 0 9 115 119 106 197 419 195
20 14 9 15 32 49 50 39 31 25 21 23 18 16 14 0 0 0 1 0 0 0 0 0 0 0 0 0 0 0 0 0 0 0 0 0 0 0 0 2 10 39 79 61 71 147 126
23 25 20 23 22 27 48 44 38 33 24 20 23 17 15 0 0 0 1 0 0 0 0 0 0 0 0 0 0 0 0 0 0 0 0 0 0 0 0 0 8 24 10 0 36 36 74
28 33 33 34 30 20 21 52 56 43 37 24 23 21 19 0 0 0 0 7 0 0 0 0 0 0 0 0 0 0 0 0 0 0 0 0 0 0 0 0 0 6 2 20 28 6 29
13 21 33 35 37 19 10 22 43 52 38 37 23 21 14 7 0 0 0 9 2 0 0 0 0 0 0 0 0 0 0 0 0 0 0 0 0 0 0 0 0 0 2 7 6 3 20
23 27 26 40 40 37 15 20 24 41 60 34 33 25 15 11 5 6 26 15 0 0 0 0 0 0 0 0 0 0 0 0 0 0 0 0 0 0 0 0 0 0 6 1 2 4 42
24 23 24 29 63 59 46 37 26 29 57 49 34 24 17 8 1 18 16 0 0 0 1 0 0 0 0 0 0 0 0 0 0 0 0 0 0 0 0 0 0 1 0 0 0 13 67
28 23 24 27 35 52 43 39 32 24 35 62 43 40 22 26 7 10 4 5 0 1 0 0 0 0 0 0 0 0 0 0 0 0 0 0 0 0 0 0 0 0 0 0 0 41 58
42 44 48 51 46 47 55 47 39 25 20 49 55 48 35 34 30 6 0 1 0 4 0 0 0 0 0 0 0 0 0 0 0 0 0 0 0 0 0 0 0 0 0 0 7 53 73
55 58 60 65 62 56 70 66 59 42 29 29 67 58 62 47 12 8 18 19 59 11 0 0 0 0 0 0 0 0 0 0 0 0 0 0 0 0 0 0 0 0 37 80 106 97 57
77 77 73 69 72 81 83 71 57 49 27 27 64 59 56 72 11 11 55 51 22 0 0 0 0 0 0 0 0 0 0 0 0 0 0 0 0 0 0 0 0 4 27 73 0 4 8
105 95 91 89 85 89 91 96 89 59 31 30 73 97 67 72 72 23 88 49 0 0 0 0 0 0 0 0 0 0 0 0 0 0 0 0 0 0 0 0 0 6 3 1 37 1 35
94 89 91 88 77 74 82 90 98 80 44 45 98 70 57 42 91 40 20 10 1 0 0 0 0 0 0 0 0 0 0 0 0 0 0 0 0 0 0 0 0 11 6 16 44 4 4
88 89 84 82 83 66 71 96 88 77 44 58 97 56 46 85 158 29 2 6 2 22 1 0 0 0 0 0 0 0 0 0 0 0 0 0 0 0 0 0 10 8 9 8 26 3 5
62 78 87 78 74 83 69 73 80 72 41 116 66 28 94 138 45 28 22 2 4 11 40 0 0 0 4 0 0 0 0 0 0 0 0 0 0 0 0 0 0 12 33 58 27 8 3
60 60 69 85 78 73 66 57 70 62 47 147 38 50 244 207 22 19 16 28 7 16 0 0 0 0 22 31 0 0 0 0 0 0 0 0 0 0 0 0 0 0 0 1 19 13 7
65 51 61 74 77 72 67 54 62 53 50 88 58 34 96 55 58 0 9 39 31 23 1 6 0 0 2 3 6 0 0 0 0 0 0 0 0 0 0 0 0 0 0 1 17 64 10
55 82 63 58 59 76 75 63 62 45 44 43 32 64 15 22 47 9 5 24 21 35 4 17 18 0 5 31 19 9 0 3 0 0 0 0 0 0 0 0 0 0 0 0 0 1 16
69 82 73 53 34 47 56 44 48 34 48 33 10 79 88 36 30 25 0 28 44 18 2 0 4 0 0 26 25 17 18 18 14 0 0 0 0 0 0 0 0 0 0 0 0 0 9
82 81 74 74 67 84 98 80 46 31 35 27 63 54 104 45 42 59 31 0 18 36 30 3 1 0 0 10 16 8 1 0 0 0 1 0 9 1 0 0 0 0 0 0 2 8 16
62 63 72 76 80 87 89 34 26 32 15 63 33 45 90 66 89 24 15 0 2 17 54 50 37 5 0 7 0 0 0 0 0 0 0 0 3 26 10 0 58 0 0 0 8 7 8
53 60 65 78 91 76 76 45 41 28 15 66 32 69 73 104 20 21 21 12 7 16 80 87 57 0 13 30 4 0 0 0 0 8 5 4 6 19 82 7 0 0 0 0 3 13 0
85 68 78 59 85 76 75 55 44 26 25 33 127 87 149 119 46 0 45 42 49 44 129 91 92 41 27 50 90 0 0 14 53 28 0 0 0 82 1 38 111 0 0 0 0 0 2
149 93 76 60 83 79 61 71 39 21 34 41 105 128 107 64 13 38 116 55 70 80 190 110 122 95 73 68 99 27 0 0 45 49 9 2 0 55 40 102 39 0 0 0 3 91 7
47 37 59 48 79 75 57 29 37 20 46 49 77 76 124 76 55 78 158 142 89 227 196 40 135 164 146 95 68 55 70 0 11 24 9 12 59 44 11 118 61 0 0 4 87 4 0
95 38 53 56 53 12 16 33 30 28 52 26 39 67 74 119 74 79 132 167 102 73 156 250 0 54 77 81 100 79 131 45 10 6 8 0 17 132 23 53 27 0 28 0 0 4 0
CIN
0 0 -2 -3 -3 -1 -2 -2 -2 -3 -4 -1 -10 0 -8 -12 -5 0 0 0 0 0 0 0 0 0 0 0 0 0 0 0 0 0 0 0 0 0 0 -28 -69 0 -25 -61 -122 -109 -71
0 0 0 0 -1 -1 -1 -1 -2 -5 -6 -4 -1 0 -2 -1 -6 0 0 0 0 0 0 0 0 0 0 0 0 0 0 0 0 0 0 0 0 0 0 -53 -34 -29 -49 -48 -54 -39 -30
0 0 0 0 0 -1 -3 -4 -6 -4 -3 -3 -3 -2 0 -1 0 0 0 0 0 0 0 0 0 0 0 0 0 0 0 0 0 0 0 0 0 0 -9 -31 -37 -24 -5 -15 -12 -6 -6
0 0 0 0 0 -1 -1 -7 -6 -4 -3 -3 -3 -4 -1 0 0 0 0 0 0 0 0 0 0 0 0 0 0 0 0 0 0 0 0 0 0 0 0 -4 -53 -3 -5 0 -22 -6 -24
0 0 0 0 0 0 -1 -1 -9 -6 -5 -5 -3 -5 -7 0 0 -16 -20 0 0 0 0 0 0 0 0 0 0 0 0 0 0 0 0 0 0 0 0 -15 -11 -1 0 0 0 -3 -3
0 0 0 0 0 0 0 -2 -1 -9 -8 -10 -8 -4 -9 -1 0 -14 -31 0 0 0 0 0 0 0 0 0 0 0 0 0 0 0 0 0 0 0 0 0 0 0 -8 0 0 -1 -10
0 0 0 0 0 0 0 0 0 -2 -10 -9 -7 -7 -9 -1 0 0 0 0 0 0 0 0 0 0 0 0 0 0 0 0 0 0 0 0 0 0 0 0 0 0 0 0 -1 -5 -9
0 0 0 0 0 0 0 0 0 -5 -2 -10 -9 -8 -11 -14 0 0 0 0 0 0 0 0 0 0 0 0 0 0 0 0 0 0 0 0 0 0 0 0 0 0 0 0 -1 -19 -23
0 0 0 0 0 0 0 0 0 0 -6 -4 -10 -9 -11 -16 -6 0 0 0 0 0 0 0 0 0 0 0 0 0 0 0 0 0 0 0 0 0 0 0 0 0 0 0 -6 -16 -22
0 0 0 0 0 0 0 0 0 0 0 -6 -10 -14 -14 -17 -2 0 0 0 0 0 0 0 0 0 0 0 0 0 0 0 0 0 0 0 0 0 0 0 0 0 0 0 0 -16 0
0 0 0 0 0 0 0 0 0 0 0 -3 -4 -18 -11 -27 -8 0 0 -2 0 -2 0 0 0 0 0 0 0 0 0 0 0 0 0 0 0 0 0 0 0 0 0 0 -3 -11 -6
0 0 0 0 0 0 0 0 0 0 0 0 -8 -11 -14 -3 0 0 0 -1 0 0 0 0 0 0 0 0 0 0 0 0 0 0 0 0 0 0 0 0 0 0 -19 0 -36 -4 0
0 0 0 0 0 0 0 0 0 0 0 -1 -4 -10 -8 0 0 0 -1 0 0 0 0 0 0 0 0 0 0 0 0 0 0 0 0 0 0 0 0 0 0 0 -9 -1 0 0 0
0 0 0 0 0 0 0 0 0 0 -1 -1 -3 -18 -5 0 0 0 0 -2 0 0 0 0 0 0 0 0 0 0 0 0 0 0 0 0 0 0 0 0 0 -21 -4 0 -20 -55 -34
0 0 0 0 0 0 0 0 0 0 -1 -1 -2 -3 -1 0 0 -2 0 0 0 0 0 0 0 0 0 0 0 0 0 0 0 0 0 0 0 0 0 0 0 -16 -6 -15 -16 -20 -36
0 0 0 0 0 0 0 0 0 0 0 -2 0 -1 0 -9 -1 -3 -4 0 0 0 0 0 0 0 0 0 0 0 0 0 0 0 0 0 0 0 0 0 0 -11 -2 0 -2 -10 -31
0 0 0 0 0 0 0 0 0 0 -1 -1 0 -1 0 -11 0 -23 -3 0 0 -1 -1 0 0 0 0 0 0 0 0 0 0 0 0 0 0 0 0 -1 0 -13 -8 -14 -8 -10 -1
0 0 0 0 0 0 0 0 0 0 -2 0 0 0 0 -1 0 -11 0 0 0 0 -3 0 0 0 -63 0 0 0 0 0 0 0 0 0 0 0 0 0 0 -5 0 -2 0 -1 -11
0 0 0 0 0 0 0 0 0 -1 -3 0 0 0 0 0 0 0 0 0 0 0 0 0 0 0 -81 -51 0 0 0 0 0 0 0 0 0 0 0 0 0 0 0 -2 -12 -29 -1
0 0 0 0 0 0 0 0 0 0 0 0 -1 0 0 -1 0 0 0 0 0 0 0 0 0 0 -80 -70 -64 0 0 0 0 0 0 0 0 0 0 0 0 0 0 -4 -12 -2 -3
0 0 0 0 0 0 0 0 0 0 0 -1 0 0 0 0 0 0 0 0 0 0 0 0 0 0 -45 -43 -57 -66 0 -161 0 0 0 0 0 0 0 0 0 0 0 0 0 -1 0
0 0 0 -1 0 0 -1 0 0 0 0 0 0 0 0 0 0 0 0 0 0 0 0 0 0 0 0 -75 -63 -126 -115 -117 -80 -3 0 0 0 0 0 0 0 0 0 0 0 0 -1
0 0 0 0 0 0 0 0 0 0 0 0 0 0 0 0 0 0 0 0 0 0 0 0 0 0 0 -120 -66 -139 -112 -152 0 0 -22 0 -11 -4 0 0 0 0 0 0 -5 -13 -10
0 0 0 0 0 -1 0 -3 0 0 -1 0 -3 0 0 0 0 0 0 0 0 0 0 0 0 0 0 -205 0 0 0 0 0 0 0 0 -15 -20 -9 -9 -16 0 0 0 -8 -6 -5
0 0 0 0 0 -8 -1 -1 0 0 0 0 -1 0 0 0 0 0 0 0 0 -1 0 0 -1 0 -101 -163 -72 0 0 0 0 -132 -135 -105 -31 -57 -35 -21 0 0 0 0 -17 -9 -3
0 0 0 0 0 0 -4 0 0 0 0 0 0 0 0 0 0 0 0 0 0 0 0 0 0 -29 -100 -110 -36 -1 0 -2 -34 -101 0 0 0 -43 -15 -17 -5 0 0 0 0 0 -8
0 0 -3 0 0 0 -7 0 0 0 0 0 0 -1 0 0 0 -1 0 0 0 0 0 0 -1 -1 -3 -20 -27 -19 0 -5 -5 -27 -147 -51 -34 -68 -67 -29 -13 0 0 0 -3 -49 -9
-34 0 -4 0 0 0 -1 0 0 0 0 0 0 0 0 0 0 0 -1 0 0 0 0 0 0 -1 0 -2 -7 -7 -8 -6 -38 -6 -48 -33 -67 -97 -39 -36 -24 0 0 -21 -21 -3 0
-34 -23 0 0 -1 -2 -2 0 0 0 0 -4 0 -6 -1 0 -1 -9 -35 -8 0 0 0 0 0 0 0 0 -2 -8 -12 -31 -32 -64 -43 0 -38 -7 -66 -18 -156 0 -52 0 -9 -43 0
Wind_Speed
16 15 13 13 12 12 13 11 12 9 10 11 13 13 12 13 13 12 11 12 12 12 12 13 14 14 11 7 8 5 4 9 11 11 10 8 8 6 8 3 4 8 5 4 3 2 3
19 15 15 15 13 13 13 12 11 10 10 9 10 12 13 11 12 12 12 12 12 12 12 13 13 13 6 10 4 4 4 6 7 11 8 8 2 2 4 3 5 2 2 2 4 5 3
18 19 17 15 15 13 12 11 12 11 10 10 9 11 12 13 12 12 11 11 13 12 12 14 10 6 7 16 2 7 4 3 7 7 7 6 4 6 2 4 0 3 6 5 4 3 1
17 18 19 18 15 14 13 12 10 12 12 10 11 10 11 12 13 12 11 12 12 13 12 10 5 5 10 2 4 8 9 9 9 6 7 2 4 5 5 1 4 7 6 7 9 5 2
18 18 18 17 18 17 13 16 12 11 12 12 10 10 11 12 13 12 11 12 14 9 5 3 5 6 10 5 7 9 14 9 8 7 6 2 6 4 5 11 8 7 5 3 4 7 1
20 20 19 17 17 18 15 14 13 11 11 10 12 11 10 12 13 12 11 11 10 3 5 5 4 6 8 3 3 4 10 11 5 9 6 9 7 9 10 10 11 7 9 6 8 6 7
23 23 20 19 18 18 19 15 13 13 11 11 10 11 9 11 12 11 9 8 7 7 7 10 4 5 3 4 3 8 8 11 10 10 12 8 9 11 9 11 8 7 5 5 6 3 7
23 23 23 22 21 21 20 20 15 12 14 11 10 11 9 11 10 9 6 6 4 5 11 15 21 21 16 6 4 9 10 14 13 15 8 8 11 6 2 6 7 8 7 7 3 1 8
24 23 23 24 23 22 22 20 18 16 12 14 9 9 9 8 8 2 8 8 1 5 8 9 14 12 10 14 10 13 15 16 17 17 15 14 2 2 8 8 9 10 10 5 8 9 4
26 25 24 24 23 23 22 20 17 17 13 13 10 9 9 5 4 4 6 2 5 6 7 6 8 9 12 10 12 16 17 15 8 19 15 12 6 7 8 10 9 10 4 10 8 7 2
28 27 27 26 25 24 23 21 19 18 17 14 11 9 10 10 6 5 4 5 5 5 8 8 6 5 9 19 12 19 17 10 18 12 10 11 10 11 11 13 10 3 1 5 6 8 5
31 29 28 27 26 25 24 23 21 19 18 15 13 12 9 8 8 8 3 8 4 5 11 4 7 10 11 16 7 15 14 8 9 12 11 11 2 5 2 4 10 8 5 3 3 4 7
32 31 30 29 28 27 25 25 23 21 19 16 16 14 10 11 9 7 7 4 7 11 2 7 6 8 13 14 12 16 24 22 16 17 17 15 13 5 5 8 6 10 8 5 6 5 3
33 32 31 30 29 28 27 26 25 22 20 18 16 13 10 13 13 8 5 4 14 7 13 2 3 8 11 17 14 15 24 23 23 19 12 16 16 14 12 11 7 14 11 4 6 5 5
33 32 32 31 30 28 27 26 26 24 21 18 16 9 7 9 11 4 5 14 13 12 6 5 6 7 9 14 9 14 21 25 24 21 15 17 15 5 6 4 9 7 9 2 2 3 3
34 33 32 32 32 30 28 27 27 26 23 19 11 8 12 9 10 6 8 25 17 14 6 6 9 10 12 15 12 17 19 19 25 24 19 7 13 8 9 6 4 7 11 6 4 5 6
34 34 33 32 31 32 31 29 29 29 26 21 10 6 9 13 10 7 16 25 26 13 8 6 9 3 6 10 18 16 13 5 24 21 20 14 9 7 7 12 12 7 8 4 3 4 4
34 34 34 34 33 33 33 32 31 32 29 21 10 7 12 17 11 6 20 29 12 26 12 6 3 4 3 7 14 18 19 12 21 22 23 17 9 9 13 4 5 9 12 14 7 8 4
35 34 34 33 34 35 35 35 34 36 35 14 8 3 11 15 14 15 26 31 27 15 28 9 7 6 1 4 7 17 11 10 13 20 21 16 10 10 11 8 5 9 11 11 7 3 10
34 34 34 35 34 35 36 37 36 38 38 15 7 9 6 11 19 30 25 24 31 24 20 26 5 9 5 5 7 1 9 4 13 20 7 18 14 18 14 11 10 14 13 14 15 9 11
28 29 32 35 34 34 35 38 38 41 41 14 8 10 12 16 19 28 30 22 29 26 28 18 21 13 11 4 3 6 5 3 5 6 10 13 17 17 17 15 13 16 16 17 18 17 16
29 30 29 26 27 31 33 38 40 44 43 12 9 9 17 11 28 32 30 30 29 33 24 27 18 23 15 5 4 4 5 2 3 5 9 9 13 12 13 11 13 15 17 17 18 16 12
31 31 32 32 32 32 34 37 42 45 40 8 10 13 14 17 27 22 23 32 30 29 28 24 23 15 12 17 9 6 5 4 4 2 8 6 10 7 13 5 5 8 15 15 14 12 14
33 33 33 34 34 34 33 35 44 47 40 9 13 10 10 12 17 19 29 29 32 29 24 17 17 22 11 1 0 9 5 7 8 8 9 6 11 6 5 4 8 12 1 12 17 16 16
35 36 36 35 35 34 34 34 44 49 46 12 11 12 11 11 18 25 28 31 26 25 24 23 9 11 7 5 5 1 7 7 9 5 10 10 7 5 6 11 10 8 5 9 12 16 17
31 30 33 37 35 33 31 45 43 48 47 13 12 10 8 11 19 29 23 27 21 21 19 21 17 8 7 4 6 7 8 7 5 6 1 6 5 6 5 8 8 6 13 10 6 13 12
28 34 30 36 34 32 30 38 46 47 47 14 8 12 8 10 14 16 17 19 25 21 16 16 11 13 11 5 4 6 7 7 5 4 5 5 4 10 8 6 4 3 7 11 10 15 4
34 33 31 36 34 31 27 41 45 45 45 17 9 11 10 5 5 13 17 19 21 17 16 14 13 7 9 9 7 6 4 8 9 6 3 5 8 5 4 5 9 10 10 11 11 2 7
25 34 35 35 34 31 32 44 45 45 40 14 8 5 6 6 3 5 8 8 19 26 15 18 12 19 8 8 6 4 3 3 10 7 15 7 8 4 8 5 3 17 10 14 5 6 5
Wind_Direction
322 306 282 285 292 297 301 296 300 296 308 318 323 324 321 318 313 296 296 301 305 309 311 314 321 329 318 283 265 82 115 130 166 193 216 206 207 234 240 260 234 253 317 310 299 229 285
298 301 323 294 271 278 288 297 292 289 296 299 310 316 319 315 316 309 294 298 300 302 302 302 314 311 280 273 79 165 124 152 185 187 199 207 238 298 269 269 274 68 358 163 178 176 176
294 295 304 300 313 275 274 280 296 286 290 295 302 309 314 315 310 309 299 293 296 296 297 300 298 275 256 262 176 187 228 224 192 212 205 210 244 251 340 237 203 244 249 185 166 171 325
286 287 287 287 296 306 281 265 269 290 291 286 293 303 308 308 304 302 302 290 289 293 302 298 238 234 260 200 228 233 215 230 230 234 259 227 216 277 259 114 219 250 239 247 130 181 126
281 277 277 284 284 289 307 274 257 262 281 292 287 295 305 305 307 304 299 287 282 295 298 178 193 241 261 139 222 221 207 215 193 197 226 231 212 265 204 236 226 203 275 274 195 204 214
273 273 276 276 280 276 283 304 264 254 264 280 287 284 298 302 307 308 300 273 291 209 202 228 249 247 229 207 143 169 189 210 184 154 174 207 210 232 221 230 234 203 219 200 284 142 232
281 273 271 269 271 272 272 276 285 266 252 265 280 280 294 299 305 317 304 277 229 197 217 239 170 266 286 316 201 199 180 180 196 210 217 200 228 226 241 227 318 271 276 277 294 97 281
278 275 267 262 263 265 269 266 268 275 265 250 267 278 283 295 307 310 277 274 344 14 292 254 253 250 255 305 289 203 178 187 193 207 196 202 228 243 211 206 238 237 247 263 253 100 304
272 270 270 262 257 258 260 264 261 261 255 253 257 272 274 292 316 239 250 263 115 316 266 260 226 239 222 197 227 213 193 201 198 208 208 231 127 198 208 190 221 238 266 284 286 321 249
269 267 265 264 256 250 250 251 256 254 256 241 239 255 267 275 259 216 241 158 249 212 271 239 207 230 185 173 224 211 202 188 195 207 211 231 216 217 224 246 236 250 248 266 266 272 246
264 261 260 258 256 249 244 243 244 247 249 239 235 234 253 221 335 216 107 17 126 200 270 127 160 117 162 187 130 190 185 194 201 183 197 204 189 200 226 243 210 244 158 246 255 255 279
260 259 257 255 252 248 239 236 232 234 240 240 216 235 226 229 242 250 193 322 203 217 242 198 153 179 167 201 215 143 171 214 219 190 218 219 137 223 252 188 203 130 167 156 198 236 238
259 257 255 253 249 246 243 232 227 225 228 232 219 226 206 232 230 226 236 254 194 230 59 177 193 180 196 181 198 188 178 187 185 189 204 198 209 176 190 177 184 205 220 181 190 205 255
255 253 250 249 246 241 238 230 221 219 221 222 214 217 217 236 238 278 198 189 227 218 224 5 181 181 200 172 199 198 186 191 206 202 197 203 200 206 184 229 212 206 218 243 225 195 184
254 251 248 244 241 237 233 226 215 211 212 210 211 218 222 226 227 253 216 204 215 211 210 230 160 181 211 199 189 185 201 201 197 201 202 202 210 151 212 191 212 163 215 1 98 26 257
253 250 246 241 236 234 229 221 211 203 201 195 213 211 215 194 202 214 218 224 215 218 224 216 229 207 197 196 198 199 189 210 203 201 210 198 214 194 144 167 155 260 137 179 214 224 241
253 248 244 238 233 228 223 217 207 197 192 185 194 217 194 176 175 225 216 214 220 198 226 221 230 237 232 190 208 202 190 180 199 195 209 210 230 154 178 204 190 169 196 221 263 263 259
251 247 241 237 230 225 219 213 203 190 183 176 183 211 166 162 187 227 225 213 215 220 216 223 250 256 250 213 209 213 212 218 198 184 192 193 213 204 205 123 268 269 224 204 220 195 234
249 242 238 234 231 224 216 209 201 186 180 168 180 170 177 179 197 221 234 224 225 217 218 210 212 223 245 253 224 214 213 198 188 189 196 176 208 208 211 192 186 219 207 222 232 264 236
249 237 233 232 226 224 215 206 198 184 180 176 166 169 171 201 217 204 221 224 216 224 232 224 238 228 252 255 230 214 220 180 188 205 187 175 207 217 227 220 205 213 220 212 221 230 249
245 236 235 228 225 217 214 202 195 182 178 173 187 194 172 186 202 209 211 206 213 206 210 217 220 223 210 241 234 202 226 145 164 171 187 201 218 222 236 241 245 237 241 223 226 237 248
245 237 224 215 219 218 210 201 190 179 174 184 173 187 183 181 203 208 196 216 210 212 192 210 221 208 222 239 4 120 7 190 171 171 180 196 221 215 219 227 231 241 242 246 227 242 251
241 234 229 221 217 212 208 207 186 179 168 176 193 214 188 202 195 208 210 200 217 208 219 210 212 211 212 233 259 359 353 334 327 326 199 200 201 195 228 207 213 256 235 225 221 225 232
241 234 224 219 216 212 208 205 182 177 173 178 171 180 202 196 203 201 213 204 207 220 209 202 212 216 217 186 67 298 288 296 280 257 237 190 204 200 218 169 226 249 274 235 237 242 237
242 233 223 213 211 209 207 197 177 173 174 193 163 192 191 203 202 205 207 207 203 218 212 206 188 215 160 173 236 139 306 267 235 234 210 217 190 174 175 215 260 241 193 194 200 243 238
230 220 218 206 203 201 201 194 175 170 172 189 173 191 203 195 213 205 193 201 198 194 198 207 198 136 121 153 180 204 193 304 175 162 160 178 235 240 169 216 221 222 211 202 214 251 255
229 214 207 196 190 191 187 180 172 168 172 178 161 188 180 220 232 209 203 188 200 188 191 178 161 186 169 180 173 196 189 217 246 224 175 167 177 210 206 234 241 220 147 160 211 252 268
213 199 194 179 176 174 171 163 168 167 172 172 152 189 185 188 231 215 215 194 195 205 182 178 182 186 179 194 196 179 182 197 211 234 169 201 185 175 189 211 235 148 134 208 233 192 203
136 155 161 162 164 166 169 168 166 166 170 144 127 161 159 225 24 335 312 254 216 189 175 171 191 168 163 179 203 190 146 166 193 226 209 252 232 252 217 212 84 185 223 222 262 250 204